Charlottetown, Prince Edward Island

7:37 PM AST on November 14, 2019 (GMT -0400)
Charlottetown

Weather History for CYYG - October, 2019

Change the Weather History Date:

Monday, October 21, 2019

  Actual Average Record
Temperature  
Mean Temperature 46 °F -  
Max Temperature 57 °F 46 °F 64 °F (2000)
Min Temperature 35 °F 33 °F 28 °F (2003)
Degree Days  
Heating Degree Days 19    
Moisture  
Dew Point 41 °F    
Average Humidity 83    
Maximum Humidity 100    
Minimum Humidity 39    
Precipitation  
Precipitation 0.00 in 0.16 in - ()
Sea Level Pressure  
Sea Level Pressure 30.12 in    
Wind  
Wind Speed 3 mph ()    
Max Wind Speed 9 mph    
Max Gust Speed -    
Visibility 15.0 miles    
Events Fog    
Averages and records for this station are not official NWS values.
T = Trace of Precipitation, MM = Missing Value Source: Averaged Metar Reports

Daily Weather History Graph

Daily Weather History Graph

Search for Another Location

Airport or City:

Astronomy

Oct. 21, 2019 Rise Set
Actual Time 7:37 AM ADT 6:15 PM ADT
Civil Twilight 7:07 AM ADT 6:46 PM ADT
Nautical Twilight 6:32 AM ADT 7:21 PM ADT
Astronomical Twilight 5:57 AM ADT 7:56 PM ADT
Moon No Moon Rise 3:04 PM ADT (10/21)
Length of Visible Light 11h 39m
Length of Day
10h 38m
Waning Gibbous, 49% of the Moon is Illuminated
Oct 21
Waning Gibbous
Oct 28
New
Nov 4
First Quarter
Nov 12
Full
Nov 19
Last Quarter

Hourly Weather History & Observations

Time (ADT) Temp. Windchill Dew Point Humidity Pressure Visibility Wind Dir Wind Speed Gust Speed Precip Events Conditions
12:00 AM 44 °F - 41 °F 85% 30.08 in 15 mi WSW 5.8 mph - -  
12:00 AM 44.6 °F 41.4 °F 41.0 °F 87% 30.08 in 15.0 mi WSW 5.8 mph - N/A   Clear
1:00 AM 37.4 °F - 37.4 °F 100% 30.09 in 15.0 mi NNW 2.3 mph - N/A   Clear
2:00 AM 41.0 °F 38.0 °F 39.2 °F 93% 30.09 in 15.0 mi South 4.6 mph - N/A   Clear
3:00 AM 38 °F - 38 °F 99% 30.09 in 15 mi NW 2.3 mph - -  
3:00 AM 39.2 °F - 37.4 °F 93% 30.09 in 15.0 mi NNW 2.3 mph - N/A   Clear
4:00 AM 37.4 °F - 37.4 °F 100% 30.09 in 15.0 mi Calm Calm - N/A   Mostly Cloudy
5:00 AM 35.6 °F - 35.6 °F 100% 30.10 in 15.0 mi Calm Calm - N/A   Mostly Cloudy
6:00 AM 38 °F - 38 °F 99% 30.11 in 15 mi North 1.2 mph - -  
6:00 AM 37.4 °F - 37.4 °F 100% 30.11 in 15.0 mi Calm Calm - N/A   Mostly Cloudy
7:00 AM 39.2 °F - 39.2 °F 100% 30.13 in 15.0 mi NW 2.3 mph - N/A   Mostly Cloudy
9:00 AM 43 °F - 42 °F 94% 30.14 in 15 mi East 2.3 mph - -   Mostly Cloudy
9:36 AM 44.6 °F 43.1 °F 44.6 °F 100% 30.14 in 15.0 mi SSE 3.5 mph - N/A Fog Mostly Cloudy
10:00 AM 48.2 °F - 44.6 °F 87% 30.14 in 15.0 mi Calm Calm - N/A Fog Partly Cloudy
11:00 AM 51.8 °F - 46.4 °F 82% 30.16 in 15.0 mi South 6.9 mph - N/A   Scattered Clouds
12:00 PM 54 °F - 47 °F 72% 30.16 in 15 mi South 8.1 mph - -  
1:00 PM 55.4 °F - 42.8 °F 63% 30.12 in 15.0 mi South 9.2 mph - N/A   Partly Cloudy
2:00 PM 57.2 °F - 41.0 °F 55% 30.11 in 15.0 mi SW 6.9 mph - N/A   Scattered Clouds
3:00 PM 58 °F - 40 °F 39% 30.11 in 15 mi SSW 4.6 mph - -   Scattered Clouds
3:00 PM 57.2 °F - 39.2 °F 51% 30.11 in 15.0 mi South 4.6 mph - N/A   Mostly Cloudy
4:00 PM 57.2 °F - 41.0 °F 55% 30.10 in 15.0 mi Variable 2.3 mph - N/A   Scattered Clouds
5:00 PM 57.2 °F - 41.0 °F 55% 30.12 in 15.0 mi SSE 5.8 mph - N/A   Scattered Clouds
6:00 PM 53 °F - 43 °F 59% 30.14 in 15 mi West 2.3 mph - -  
6:00 PM 53.6 °F - 42.8 °F 67% 30.14 in 15.0 mi NW 4.6 mph - N/A   Scattered Clouds
7:00 PM 48.2 °F - 44.6 °F 87% 30.15 in 15.0 mi NNE 5.8 mph - N/A   Scattered Clouds
8:00 PM 46.4 °F 43.5 °F 42.8 °F 87% 30.16 in 15.0 mi NNE 5.8 mph - N/A   Partly Cloudy
9:00 PM 44 °F - 42 °F 91% 30.16 in 15 mi NNE 4.6 mph - -   Scattered Clouds
9:00 PM 42.8 °F 40.1 °F 42.8 °F 100% 30.16 in 15.0 mi NNE 4.6 mph - N/A   Partly Cloudy
10:00 PM 41.0 °F 39.0 °F 41.0 °F 100% 30.17 in 15.0 mi NNW 3.5 mph - N/A   Partly Cloudy
11:00 PM 41.0 °F 38.0 °F 41.0 °F 100% 30.19 in 15.0 mi North 4.6 mph - N/A Fog Shallow Fog